Location: Carr Mill
(33.2054°N, 85.9439°W)
Time: 23:50:55
(UTC+00:00)

Cosmos 1244 Rocket - Pass Details

Date: 29 October 2020
Orbit: 954 x 997 km, 82.9° (Epoch: 28 November)

Event Time Altitude Azimuth Distance (km) Brightness Sun altitude
Rises 23:37:24 0° 355° (N) 3,662 7.5 -9.6°
Reaches altitude 10° 23:39:54 10° 356° (N) 2,718 6.8 -10.1°
Maximum altitude 23:46:09 81° 84° (E) 993 4.5 -11.4°
Drops below altitude 10° 23:52:26 10° 172° (S) 2,733 6.9 -12.7°
Sets 23:54:57 0° 173° (S) 3,683 7.5 -13.2°
